Location: Bijele Vode
(45.2833°N, 16.2000°E)
Time: 12:36:11
(UTC+00:00)

ISS - Visible Passes

Search period start: 20 September 2021 00:00
Search period end: 30 September 2021 00:00
Orbit: 419 x 423 km, 51.6° (Epoch: 20 September)

Date Brightness Start Highest point End Pass type
(mag) Time Alt. Az. Time Alt. Az. Time Alt. Az.
20 Sep -2.5 18:56:14 10° W 18:59:22 35° NNW 18:59:51 33° N visible
21 Sep -2.8 18:09:07 10° W 18:12:23 45° NNW 18:14:52 16° NE visible
21 Sep -0.7 19:46:49 10° WNW 19:47:52 16° NW 19:47:52 16° NW visible
22 Sep -3.3 17:22:04 10° WSW 17:25:25 61° NNW 17:28:45 10° ENE visible
22 Sep -2.0 18:59:44 10° WNW 19:02:42 27° N 19:02:47 27° N visible
23 Sep -2.1 18:12:36 10° WNW 18:15:38 30° N 18:17:40 17° NE visible
23 Sep -0.5 19:50:04 10° NW 19:50:40 14° NW 19:50:40 14° NW visible
24 Sep -2.4 17:25:27 10° W 17:28:35 35° NNW 17:31:43 10° NE visible
24 Sep -1.8 19:03:04 10° NW 19:05:30 26° NNW 19:05:30 26° NNW visible
25 Sep -2.1 18:16:02 10° WNW 18:18:57 26° N 18:20:19 20° NE visible
25 Sep -0.3 19:53:03 10° NW 19:53:18 12° NW 19:53:18 12° NW visible
26 Sep -2.1 17:28:55 10° WNW 17:31:51 27° N 17:34:49 10° NE visible
26 Sep -1.7 19:06:08 10° NW 19:08:06 26° NNW 19:08:06 26° NNW visible
27 Sep -2.5 18:19:11 10° NW 18:22:14 30° N 18:22:54 28° NE visible
28 Sep -2.2 17:32:10 10° NW 17:35:09 27° N 17:37:43 12° ENE visible
28 Sep -1.6 19:09:03 10° WNW 19:10:42 26° NW 19:10:42 26° NW visible
29 Sep -3.2 18:22:08 10° NW 18:25:25 46° NNE 18:25:32 46° NNE visible
